Weather History for EGOP - December, 2012

Change the Weather History Date:

Tuesday, December 11, 2012

  Actual Average (EGFF) Record (EGFF)
Temperature  
Mean Temperature 32 °F -  
Max Temperature 41 °F 46 °F 55 °F (2000)
Min Temperature 24 °F 38 °F 28 °F (2008)
Degree Days  
Heating Degree Days 32    
Moisture  
Dew Point 29 °F    
Average Humidity 85    
Maximum Humidity 93    
Minimum Humidity 70    
Precipitation  
Precipitation 0.01 in - - ()
Sea Level Pressure  
Sea Level Pressure 30.39 in    
Wind  
Wind Speed 5 mph ()    
Max Wind Speed 10 mph    
Max Gust Speed -    
Visibility 7.6 miles    
Events      
Averages and records for this station are not official NWS values.
T = Trace of Precipitation, MM = Missing Value Source: Averaged Metar Reports

Daily Weather History Graph

Daily Weather History Graph

Search for Another Location

Airport or City:

Trip Planner

Search our weather history database for the weather conditions in past years. The results will help you decide how hot, cold, wet, or windy it might be!

Date:

Astronomy

Dec. 11, 2012 Rise Set
Actual Time 8:14 AM GMT 4:07 PM GMT
Civil Twilight 7:34 AM GMT 4:47 PM GMT
Nautical Twilight 6:50 AM GMT 5:30 PM GMT
Astronomical Twilight 6:10 AM GMT 6:11 PM GMT
Moon 5:43 AM GMT (12/11) 2:40 PM GMT (12/11)
Length of Visible Light 9h 13m
Length of Day
7h 52m
Waning Crescent, 5% of the Moon is Illuminated
Dec 11
Waning Crescent
Dec 13
New
Dec 20
First Quarter
Dec 28
Full
Jan 5
Last Quarter

Hourly Weather History & Observations

Time (GMT) Temp. Windchill Dew Point Humidity Pressure Visibility Wind Dir Wind Speed Gust Speed Precip Events Conditions
12:50 AM 24.8 °F 20.5 °F 23.0 °F 93% 30.42 in 6.2 mi NNE 3.5 mph - N/A   Unknown
1:50 AM 26.6 °F 19.1 °F 24.8 °F 93% 30.42 in 6.2 mi NE 6.9 mph - N/A   Unknown
2:50 AM 30 °F - 28 °F 91% 30.44 in 9 mi ENE 6.9 mph - -  
2:50 AM 30.2 °F 23.4 °F 28.4 °F 93% 30.42 in 6.2 mi ENE 6.9 mph - N/A   Unknown
3:50 AM 30.2 °F 24.3 °F 28.4 °F 93% 30.42 in 6.2 mi ENE 5.8 mph - N/A   Unknown
4:50 AM 32.0 °F 25.6 °F 28.4 °F 87% 30.42 in 6.2 mi East 6.9 mph - N/A   Unknown
5:50 AM 31 °F - 28 °F 82% 30.44 in 11 mi East 5.8 mph - -  
5:50 AM 32.0 °F 26.4 °F 28.4 °F 87% 30.42 in 6.2 mi East 5.8 mph - N/A   Unknown
6:50 AM 32.0 °F 24.2 °F 28.4 °F 87% 30.42 in 6.2 mi East 9.2 mph - N/A   Unknown
7:50 AM 26.6 °F 21.2 °F 23.0 °F 86% 30.42 in 6.2 mi ENE 4.6 mph - N/A   Unknown
8:50 AM 30 °F - 28 °F 90% 30.45 in 10 mi East 5.8 mph - -  
8:50 AM 30.2 °F 24.3 °F 28.4 °F 93% 30.45 in - East 5.8 mph - N/A   Clear
9:50 AM 30.2 °F - 28.4 °F 93% 30.45 in - NE 2.3 mph - N/A   Clear
10:50 AM 33.8 °F 29.6 °F 30.2 °F 87% 30.45 in - ENE 4.6 mph - N/A   Clear
11:50 AM 37 °F - 32 °F 75% 30.45 in 11 mi ENE 3.5 mph - -  
11:50 AM 37.4 °F 34.9 °F 32.0 °F 81% 30.42 in - ENE 3.5 mph - N/A   Clear
12:50 PM 39.2 °F - 32.0 °F 75% 30.42 in - SW 1.2 mph - N/A   Clear
1:50 PM 39.2 °F 37.0 °F 32.0 °F 75% 30.42 in 6.2 mi ESE 3.5 mph - N/A   Partly Cloudy
2:50 PM 38 °F - 32 °F 72% 30.40 in 15 mi East 1.2 mph - -  
2:50 PM 39.2 °F - 32.0 °F 75% 30.39 in 6.2 mi East 1.2 mph - N/A   Unknown
3:50 PM 35.6 °F 31.7 °F 32.0 °F 87% 30.39 in 6.2 mi ESE 4.6 mph - N/A   Unknown
4:50 PM 35.6 °F 30.7 °F 32.0 °F 87% 30.39 in 6.2 mi East 5.8 mph - N/A   Unknown
5:50 PM 34 °F - 31 °F 85% 30.38 in 10 mi East 5.8 mph - -  
5:50 PM 33.8 °F 28.6 °F 32.0 °F 93% 30.36 in 6.2 mi East 5.8 mph - N/A   Unknown
6:50 PM 32.0 °F 26.4 °F 28.4 °F 87% 30.36 in 6.2 mi East 5.8 mph - N/A   Mostly Cloudy
7:50 PM 33.8 °F 27.7 °F 30.2 °F 87% 30.33 in 6.2 mi East 6.9 mph - N/A   Partly Cloudy
8:50 PM 33 °F - 29 °F 78% 30.35 in 11 mi East 8.1 mph - -  
8:50 PM 33.8 °F 27.0 °F 28.4 °F 81% 30.33 in 6.2 mi East 8.1 mph - N/A   Unknown
9:50 PM 32.0 °F 24.8 °F 28.4 °F 87% 30.33 in 6.2 mi East 8.1 mph - N/A   Mostly Cloudy
10:50 PM 32.0 °F 24.2 °F 28.4 °F 87% 30.30 in 6.2 mi East 9.2 mph - N/A   Partly Cloudy
11:50 PM 33 °F - 27 °F 70% 30.30 in 11 mi East 10.4 mph - -  
11:50 PM 32.0 °F 23.6 °F 26.6 °F 80% 30.27 in 6.2 mi East 10.4 mph - N/A   Unknown